Regional Weather Roundup
Issued by NWS Sioux Falls, SD

Home | Current Version | Previous Version | Text Only | Print | Product List | Glossary Off
Versions: 1 2 3 4 5 6 7 8 9 10 11 12 13 14 15 16 17 18 19 20 21 22 23 24 25 26 27 28 29 30 31 32 33 34 35 36 37 38 39 40 41 42 43 44 45 46 47 48 49 50

000
ASUS43 KFSD 221702
RWRFSD

WEATHER ROUNDUP FOR SE SOUTH DAKOTA/SW MINNESOTA/NW IOWA
NATIONAL WEATHER SERVICE SIOUX FALLS SD
1200 PM CDT FRI SEP 22 2017

NOTE: "FAIR" INDICATES FEW OR NO CLOUDS BELOW 12,000 FEET WITH NO
SIGNIFICANT WEATHER AND OR OBSTRUCTIONS TO VISIBILITY.


SDZ038>040-050-052>070-221800-
SOUTHEAST SOUTH DAKOTA

CITY           SKY/WX    TMP DP  RH WIND       PRES   REMARKS
BROOKINGS      MOSUNNY   84  71  65 S24       29.73F
CHAMBERLAIN    NOT AVBL
HURON          MOSUNNY   86  68  54 S21G26    29.64R
MADISON        FAIR      82  72  69 S24G33    29.72F
MITCHELL       SUNNY     89  67  47 S18G24    29.66S
SIOUX FALLS    MOSUNNY   85  72  65 S18G29    29.72F
WINNER         FAIR      71  52  50 W17       29.72R
YANKTON        SUNNY     88  69  53 S22G30    29.70S
$$

MNZ071-072-080-081-089-090-097-098-221800-
SOUTHWEST MINNESOTA

CITY           SKY/WX    TMP DP  RH WIND       PRES   REMARKS
FAIRMONT       SUNNY     86  71  60 S18G26    29.84S
JACKSON        SUNNY     86  68  54 S16G25    29.83F
LUVERNE        SUNNY     82  66  57 S16G25    29.76F
MARSHALL       MOSUNNY   85  71  63 S18G29    29.73S
MONTEVIDEO     CLOUDY    86  72  62 S12       29.74F
PIPESTONE      SUNNY     84  70  61 S17G25    29.76S
REDWOOD FALLS  LGT RAIN  87  71  58 S18       29.76F
TRACY          SUNNY     86  72  62 S17G23    29.76S
WORTHINGTON    SUNNY     85  71  63 S14G24    29.81S
$$

IAZ001>003-012>014-020>022-031-032-NEZ013-014-SDZ071-221800-
NORTHWEST IOWA

CITY           SKY/WX    TMP DP  RH WIND       PRES   REMARKS
CHEROKEE       SUNNY     85  72  65 S20G26    29.82F
DENISON        SUNNY     86  70  58 S21G31    29.86F
ESTHERVILLE    SUNNY     83  71  67 S18G28    29.84S
LE MARS        SUNNY     86  70  58 S24G31    29.77F
ORANGE CITY    SUNNY     86  72  62 S21       29.79S
SHELDON        SUNNY     86  70  58 S16G28    29.78F
SIOUX CITY     SUNNY     86  71  60 S21G28    29.79S
SPENCER        SUNNY     87  69  54 S20G29    29.82F
STORM LAKE     SUNNY     88  70  55 S21G29    29.84F
$$

ABBREVIATIONS USED IN REMARKS
   TC - TEMPERATURE IN CELSIUS
  WCI - WIND CHILL INDEX
   HX - HEAT INDEX
  VSB - VISIBILITY




USA.gov is the U.S. government's official web portal to all federal, state and local government web resources and services.